User: anonymous   Login
Location: *
(57.8420°S, 159.8600°W)
Time: 23:39:11
(UTC+00:00)
Language:

IRIDIUM 103 - Orbit

View from above orbital plane
View from above orbital plane
View from above satellite
View from above satellite

Ground track
Ground track

The orbit data is extracted from the following two-line orbital elements,

1 41918U 17003B   21204.24122561  .00000067  00000-0  16956-4 0  9990
2 41918  86.3979 116.4585 0002448  90.9161 269.2315 14.34215493236679
Epoch (UTC): 23 July 2021 05:47:21
Eccentricity: 0.0002448
inclination: 86.3979°
perigee height: 776 km
apogee height: 779 km
right ascension of ascending node: 116.4585°
argument of perigee: 90.9161°
revolutions per day: 14.34215493
mean anomaly at epoch: 269.2315°
orbit number at epoch: 23667

The dashed part of the orbit path shows where the satellite is in the earth's shadow,  

DLR